Lid_Strength_Index
12 11 11 11 11 10 12 13 13 12 13 11 10 9 8 7 6 6 6 6 5 5 5 4 3 3 2 2 1 1 2 1 1 1 1 1 1 1 1 1 1 1 1 1
13 11 10 12 10 10 10 11 11 12 12 9 8 7 8 7 7 7 6 6 6 6 5 4 3 3 2 3 2 2 2 2 1 1 1 1 1 1 1 1 1 1 1 1
14 13 13 14 12 11 11 11 11 13 11 9 9 8 8 7 7 7 7 6 6 6 5 4 4 3 3 3 3 3 3 2 2 1 1 1 1 1 1 1 1 1 1 1
15 14 18 13 9 9 10 10 10 10 9 8 8 8 7 6 7 7 7 7 7 6 5 4 3 3 2 2 2 2 2 2 1 2 2 1 1 1 1 1 1 1 1 1
15 16 14 11 9 10 12 12 10 10 9 9 9 9 10 8 7 7 7 7 6 5 4 3 3 3 2 3 2 2 2 2 1 1 2 2 2 2 1 1 1 1 1 1
14 16 17 11 8 8 9 14 10 10 10 9 9 13 11 7 7 6 6 5 5 4 3 3 2 2 3 3 3 3 2 2 1 1 1 2 1 1 1 1 1 1 1 1
14 15 13 9 8 8 14 13 9 9 9 10 11 10 8 6 6 6 6 5 4 4 3 3 2 2 3 3 3 2 1 1 1 1 1 1 1 1 1 1 1 2 2 1
14 15 15 7 8 11 10 9 8 9 9 9 9 8 8 7 6 6 5 4 3 4 3 3 2 3 3 3 2 1 1 2 1 1 1 1 1 1 1 2 2 2 2 2
12 13 9 8 9 8 7 8 9 9 8 7 8 8 7 6 6 6 5 5 4 3 3 3 3 3 3 2 1 1 2 2 2 1 1 1 2 2 2 2 2 3 3 3
11 9 9 8 7 7 7 7 7 7 7 6 7 6 7 7 6 6 5 4 3 3 3 3 3 3 3 2 1 2 4 3 3 2 2 1 1 1 2 2 3 3 3 3
11 9 8 7 7 7 6 6 6 6 6 5 6 6 5 5 5 4 4 4 4 4 4 4 3 3 2 2 3 4 4 3 3 2 2 2 2 2 2 1 2 2 2 2
12 9 9 8 6 6 6 6 5 5 5 5 4 5 5 5 5 4 4 4 4 4 3 4 3 3 3 4 4 4 4 3 3 3 3 2 2 2 4 5 6 8 8 5
8 7 6 6 6 5 5 5 5 5 5 5 4 4 4 5 5 4 4 4 5 4 3 4 4 4 4 4 4 3 4 4 4 4 3 3 3 3 4 2 6 8 9 9
6 6 7 6 7 5 5 5 5 4 4 4 4 4 5 5 5 5 5 5 5 5 4 4 5 5 4 4 3 3 3 5 4 3 2 3 2 2 3 3 4 3 5 8
6 6 6 7 6 6 5 5 5 6 5 5 5 5 6 6 6 6 6 5 6 5 6 6 5 4 3 3 3 4 4 4 3 3 3 3 2 2 2 3 3 3 2 5
6 6 6 6 6 6 5 5 6 6 5 5 5 6 6 6 6 6 6 6 7 8 7 6 5 4 3 3 3 4 4 4 4 4 4 4 5 4 4 3 3 3 3 3
7 7 6 7 6 6 5 5 5 6 5 5 5 5 6 6 6 6 6 7 7 7 6 6 5 4 3 3 3 4 4 4 4 5 5 5 5 6 6 5 5 4 4 3
4 4 5 5 6 6 6 6 5 6 5 5 4 5 6 7 7 7 7 7 6 5 5 5 4 3 4 3 2 3 3 3 4 5 5 5 6 6 6 6 7 7 7 6
4 4 4 4 4 5 5 5 5 5 5 5 4 5 5 6 7 7 5 6 5 6 4 4 2 4 4 3 2 3 3 3 4 4 4 5 6 6 6 7 7 7 7 8
4 4 3 4 3 3 4 4 4 4 4 4 4 4 5 5 5 5 5 5 5 5 4 4 3 4 4 3 3 3 3 3 4 4 4 4 5 6 6 8 7 8 8 9
4 4 4 4 4 3 3 3 3 4 4 3 4 4 4 3 3 4 6 6 5 4 4 3 4 4 3 2 4 5 5 4 4 4 4 5 5 5 6 6 7 8 9 9
4 4 4 4 4 3 3 3 3 3 3 4 3 3 3 3 3 3 4 5 4 5 4 4 4 3 2 2 4 5 6 6 5 5 5 5 5 6 6 6 7 7 8 9
4 4 4 4 4 4 3 3 3 3 3 3 3 3 3 3 3 4 4 3 4 4 4 3 4 3 2 3 4 5 6 6 6 6 6 5 5 5 6 7 7 7 7 9
4 4 4 4 4 4 4 4 3 3 2 2 2 3 3 4 3 3 2 3 5 4 3 4 4 3 3 3 4 4 5 5 5 5 6 8 6 5 6 7 8 8 7 8
4 3 4 4 4 4 5 5 4 3 4 3 3 2 4 3 5 5 6 6 5 5 4 3 3 3 2 3 4 4 4 4 4 5 5 5 6 6 6 7 7 8 8 8
4 4 4 4 4 4 4 3 3 4 4 5 4 5 6 6 7 7 7 7 4 4 3 4 3 2 3 3 4 4 4 4 4 5 5 5 5 5 6 6 7 7 7 7
4 6 4 4 3 2 3 3 4 5 5 5 6 6 6 7 7 8 8 6 3 3 3 3 3 3 2 3 4 4 5 4 6 5 5 5 5 5 6 6 6 6 6 7